CW6617 Weather Reports


time (UTC)temp
C
wind
direction
speed
KPH
gust
KPH
rain 1hr
cm
rain 24hr
cm
rain mn
cm
humidity
%
barometer
mb
20260903161704 25 185 9.7 20.9 0.00 0.00 0.00 71 1016.2
20260903161205 25 181 4.8 14.5 0.00 0.00 0.00 72 1016.1
20260903160704 25 191 11.3 22.5 0.00 0.00 0.00 71 1016.2
20260903160204 25 172 12.9 20.9 0.00 0.00 0.00 70 1016.3
20260903154704 25 189 12.9 24.1 0.00 0.00 0.00 67 1016.4
20260903154204 26 208 11.3 27.4 0.00 0.00 0.00 68 1016.5
20260903153705 26 174 8.0 25.7 0.00 0.00 0.00 68 1016.5
20260903151703 26 245 9.7 24.1 0.00 0.00 0.00 63 1016.5
20260903151203 27 184 12.9 40.2 0.00 0.00 0.00 63 1016.5
20260903150704 27 200 9.7 27.4 0.00 0.00 0.00 63 1016.5
20260903150204 27 196 11.3 33.8 0.00 0.00 0.00 63 1016.5
20260903144704 27 240 8.0 14.5 0.00 0.00 0.00 63 1016.6
20260903144204 27 259 14.5 27.4 0.00 0.00 0.00 62 1016.8
20260903143703 27 218 8.0 19.3 0.00 0.00 0.00 63 1016.8
20260903143204 26 183 8.0 27.4 0.00 0.00 0.00 64 1016.7
20260903141704 26 185 14.5 27.4 0.00 0.00 0.00 66 1016.8
20260903141204 26 185 11.3 20.9 0.00 0.00 0.00 67 1016.8
20260903140705 25 200 4.8 16.1 0.00 0.00 0.00 68 1016.8
20260903140204 25 175 4.8 19.3 0.00 0.00 0.00 67 1016.8
20260903134203 25 187 4.8 19.3 0.00 0.00 0.00 66 1017.1
20260903133705 25 199 3.2 16.1 0.00 0.00 0.00 66 1017.2
20260903133203 25 192 3.2 20.9 0.00 0.00 0.00 64 1017.2
20260903131704 26 207 11.3 24.1 0.00 0.00 0.00 65 1017.3
20260903131203 26 201 6.4 16.1 0.00 0.00 0.00 66 1017.3
20260903130704 26 200 9.7 22.5 0.00 0.00 0.00 66 1017.4
20260903130204 25 242 8.0 24.1 0.00 0.00 0.00 67 1017.3
20260903124203 24 264 4.8 16.1 0.00 0.00 0.00 71 1017.5
20260903123203 23 194 8.0 22.5 0.00 0.00 0.00 71 1017.7
20260903120203 24 232 8.0 27.4 0.00 0.00 0.00 68 1017.7
20260903114704 25 296 3.2 12.9 0.00 0.00 0.00 69 1017.5
20260903114204 25 183 4.8 20.9 0.00 0.00 0.00 69 1017.5
20260903113704 25 202 9.7 19.3 0.00 0.00 0.00 70 1017.5
20260903113203 24 236 8.0 19.3 0.00 0.00 0.00 71 1017.5
20260903111704 23 205 8.0 22.5 0.00 0.00 0.00 73 1017.6
20260903111204 23 181 8.0 19.3 0.00 0.00 0.00 73 1017.7
20260903110704 23 216 11.3 20.9 0.00 0.00 0.00 73 1017.7
20260903110203 23 225 4.8 27.4 0.00 0.00 0.00 74 1017.6
20260903104704 23 187 4.8 16.1 0.00 0.00 0.00 78 1017.9
20260903104205 22 175 8.0 20.9 0.00 0.03 0.00 78 1017.8
20260903103705 22 268 3.2 12.9 0.00 0.03 0.00 77 1017.9
20260903103204 22 182 9.7 20.9 0.00 0.03 0.00 79 1017.8
20260903101704 21 205 8.0 24.1 0.00 0.03 0.00 81 1017.9
20260903101204 21 187 8.0 20.9 0.00 0.03 0.00 81 1017.9
20260903100703 21 226 3.2 11.3 0.00 0.03 0.00 80 1017.9
20260903100204 22 274 9.7 20.9 0.00 0.03 0.00 79 1017.9
20260903094704 21 208 4.8 14.5 0.00 0.03 0.00 82 1017.8
20260903094203 21 185 6.4 19.3 0.00 0.03 0.00 81 1017.8
20260903093204 21 254 6.4 16.1 0.00 0.05 0.00 82 1018.0
20260903091704 20 269 1.6 8.0 0.00 0.15 0.00 85 1018.1
20260903091204 20 195 1.6 4.8 0.00 0.15 0.00 85 1018.1
20260903090704 20 266 4.8 16.1 0.00 0.15 0.00 85 1018.2
20260903090203 20 288 3.2 16.1 0.00 0.15 0.00 85 1018.2
20260903084703 20 297 8.0 20.9 0.00 0.15 0.00 85 1018.0
20260903084204 20 189 4.8 12.9 0.00 0.15 0.00 86 1018.0
20260903083704 20 228 4.8 12.9 0.00 0.15 0.00 86 1017.9
20260903083204 20 217 6.4 20.9 0.00 0.15 0.00 86 1017.8
20260903081703 20 213 8.0 20.9 0.00 0.15 0.00 87 1017.6
20260903081204 19 233 4.8 12.9 0.00 0.15 0.00 88 1017.6
20260903080704 19 257 8.0 16.1 0.00 0.15 0.00 88 1017.4
20260903080204 19 232 3.2 19.3 0.00 0.15 0.00 88 1017.3
20260903074703 19 179 9.7 20.9 0.00 0.15 0.00 89 1017.1
20260903073704 18 194 11.3 19.3 0.00 0.15 0.00 89 1016.8
20260903073204 18 210 4.8 20.9 0.00 0.15 0.00 90 1016.9
20260903071705 18 179 8.0 14.5 0.00 0.15 0.00 90 1016.7
20260903071204 18 186 8.0 22.5 0.00 0.15 0.00 90 1016.6
20260903070704 18 176 6.4 20.9 0.00 0.15 0.00 90 1016.6
20260903070203 18 180 9.7 20.9 0.00 0.15 0.00 90 1016.4
20260903064704 18 190 6.4 19.3 0.00 0.15 0.00 91 1017.0
20260903063705 18 203 3.2 12.9 0.00 0.15 0.00 91 1016.8
20260903063204 18 199 4.8 14.5 0.00 0.15 0.00 91 1016.9
20260903061703 18 205 4.8 12.9 0.00 0.15 0.00 91 1016.8
20260903061205 18 209 1.6 8.0 0.00 0.15 0.00 91 1016.8
20260903060704 18 240 6.4 11.3 0.00 0.15 0.00 91 1016.8
20260903060204 18 200 4.8 19.3 0.00 0.15 0.00 91 1016.8
20260903054705 18 193 3.2 11.3 0.00 0.15 0.00 91 1016.8
20260903054204 18 184 4.8 11.3 0.00 0.15 0.00 91 1016.8
20260903053705 18 170 3.2 8.0 0.00 0.15 0.00 91 1016.8
20260903051703 18 182 4.8 9.7 0.00 0.15 0.00 92 1016.4
20260903051204 18 183 8.0 12.9 0.00 0.15 0.00 92 1016.4
20260903050704 18 185 8.0 19.3 0.00 0.15 0.00 92 1016.3
20260903050204 18 186 4.8 20.9 0.00 0.15 0.00 92 1016.4
20260903044704 18 181 6.4 11.3 0.00 0.15 0.00 92 1016.4
20260903043703 18 195 4.8 12.9 0.00 0.15 0.00 92 1016.3
20260903043204 18 184 4.8 12.9 0.00 0.15 0.00 92 1016.3
20260903041704 18 199 3.2 4.8 0.00 0.15 0.00 92 1016.4
20260903041204 18 175 4.8 14.5 0.00 0.15 0.00 92 1016.3
20260903040704 18 184 4.8 16.1 0.00 0.15 0.00 92 1016.5
20260903040205 18 195 4.8 19.3 0.00 0.15 0.00 92 1016.5
20260903034703 18 179 6.4 12.9 0.00 0.15 0.00 92 1016.4
20260903033704 18 185 3.2 12.9 0.00 0.15 0.00 92 1016.4
20260903033205 18 186 4.8 12.9 0.00 0.15 0.00 92 1016.5
20260903031704 18 177 3.2 14.5 0.00 0.15 0.00 92 1016.4
20260903031203 18 179 3.2 11.3 0.00 0.15 0.00 92 1016.4
20260903030703 18 167 4.8 11.3 0.00 0.15 0.00 92 1016.3
20260903030204 18 180 3.2 20.9 0.00 0.15 0.00 92 1016.3
20260903024703 18 187 6.4 11.3 0.00 0.15 0.00 92 1016.2
20260903024205 18 181 6.4 11.3 0.00 0.15 0.00 92 1016.3
20260903023704 18 173 8.0 20.9 0.00 0.15 0.00 92 1016.4
20260903023204 18 176 6.4 19.3 0.00 0.15 0.00 92 1016.4
20260903021203 18 181 8.0 20.9 0.00 0.15 0.00 91 1016.4
20260903020704 18 185 12.9 20.9 0.00 0.15 0.00 91 1016.5
20260903020204 18 186 4.8 16.1 0.00 0.15 0.00 91 1016.5
20260903014703 18 186 9.7 20.9 0.00 0.15 0.00 92 1016.5
20260903014204 18 167 9.7 16.1 0.00 0.15 0.00 92 1016.5
20260903013703 18 173 14.5 22.5 0.00 0.15 0.00 92 1016.3
20260903011704 18 180 9.7 14.5 0.00 0.15 0.00 91 1016.7
20260903010703 18 179 6.4 14.5 0.00 0.15 0.00 92 1016.7
20260903010204 18 179 3.2 25.7 0.00 0.15 0.00 92 1016.7
20260903004704 18 175 4.8 11.3 0.00 0.15 0.00 92 1016.8
20260903004204 18 171 9.7 16.1 0.00 0.15 0.00 92 1016.9
20260903003704 18 170 8.0 12.9 0.00 0.15 0.00 92 1017.1
20260903001704 18 185 6.4 20.9 0.00 0.15 0.00 92 1017.1
20260903000705 18 170 8.0 11.3 0.00 0.15 0.00 92 1017.0
20260903000204 18 176 4.8 19.3 0.00 0.15 0.00 92 1017.0
20260902234704 18 196 4.8 12.9 0.00 0.15 0.00 92 1017.2
20260902234204 18 166 6.4 12.9 0.00 0.15 0.00 92 1017.0
20260902233704 18 194 8.0 11.3 0.00 0.15 0.00 92 1017.0
20260902233204 18 166 8.0 19.3 0.00 0.15 0.00 92 1016.9
20260902231704 18 169 8.0 14.5 0.00 0.15 0.00 92 1017.2
20260902230704 18 170 8.0 19.3 0.00 0.15 0.00 92 1017.2
20260902230204 18 172 9.7 20.9 0.00 0.15 0.00 92 1017.3
20260902224704 18 168 11.3 20.9 0.00 0.15 0.15 92 1017.1
20260902224204 18 182 8.0 12.9 0.00 0.15 0.15 92 1017.3
20260902223704 18 187 9.7 19.3 0.00 0.15 0.15 92 1017.4
20260902223203 18 177 9.7 24.1 0.00 0.15 0.15 92 1017.5
20260902221704 18 171 8.0 12.9 0.00 0.15 0.15 92 1017.5
20260902221203 18 175 6.4 14.5 0.00 0.15 0.15 92 1017.7
20260902220704 18 171 4.8 14.5 0.00 0.15 0.15 93 1017.5
20260902220205 18 181 6.4 16.1 0.00 0.15 0.15 93 1017.4
20260902214703 18 182 6.4 11.3 0.00 0.15 0.15 93 1016.9
20260902214204 18 166 8.0 14.5 0.00 0.15 0.15 93 1016.9
20260902213704 18 170 6.4 16.1 0.00 0.15 0.15 93 1017.1
20260902213203 18 190 12.9 20.9 0.00 0.15 0.15 93 1017.0
20260902211204 18 190 8.0 14.5 0.00 0.15 0.15 93 1017.0
20260902210704 18 186 11.3 19.3 0.00 0.15 0.15 93 1017.0
20260902210204 18 182 9.7 20.9 0.00 0.15 0.15 93 1017.0
20260902204705 18 187 9.7 16.1 0.00 0.15 0.15 92 1017.0
20260902204204 18 206 8.0 14.5 0.00 0.15 0.15 92 1017.1
20260902203703 18 189 6.4 14.5 0.00 0.15 0.15 92 1017.1
20260902203203 18 182 8.0 19.3 0.00 0.15 0.15 92 1017.1
20260902201703 18 178 9.7 19.3 0.00 0.15 0.15 92 1016.9
20260902201204 18 174 9.7 20.9 0.00 0.15 0.15 92 1016.9
20260902200203 18 180 9.7 20.9 0.00 0.15 0.15 92 1016.9
20260902194203 18 181 9.7 20.9 0.00 0.15 0.15 93 1016.8
20260902193703 18 181 8.0 14.5 0.00 0.15 0.15 93 1017.0
20260902193204 18 184 9.7 20.9 0.00 0.15 0.15 93 1016.9
20260902191703 18 173 14.5 24.1 0.00 0.15 0.15 93 1016.9
20260902191203 18 176 12.9 20.9 0.00 0.15 0.15 93 1016.8
20260902190203 18 172 11.3 20.9 0.00 0.15 0.15 93 1016.7
20260902184704 18 178 8.0 14.5 0.00 0.15 0.15 93 1016.7
20260902184205 18 181 8.0 14.5 0.00 0.15 0.15 93 1016.8
20260902183704 18 192 9.7 20.9 0.00 0.15 0.15 93 1016.7
20260902183203 18 168 11.3 19.3 0.00 0.15 0.15 94 1016.7
20260902181704 18 181 9.7 19.3 0.00 0.15 0.15 93 1016.7
20260902180704 18 176 8.0 14.5 0.00 0.15 0.15 93 1016.9
20260902174203 18 184 9.7 19.3 0.00 0.15 0.15 92 1017.0
20260902173704 18 189 11.3 19.3 0.00 0.15 0.15 92 1017.1
20260902173203 18 179 9.7 25.7 0.00 0.15 0.15 92 1017.0
20260902171704 18 169 6.4 19.3 0.00 0.15 0.15 92 1017.1
20260902171205 18 179 11.3 20.9 0.00 0.15 0.15 92 1017.1
20260902170703 18 170 11.3 19.3 0.00 0.15 0.15 92 1017.0
20260902170204 18 176 11.3 20.9 0.00 0.15 0.15 92 1017.0
20260902164704 18 176 14.5 24.1 0.00 0.15 0.15 91 1017.0
20260902164204 18 178 12.9 25.7 0.00 0.15 0.15 91 1017.0
20260902163204 18 182 12.9 22.5 0.00 0.15 0.15 90 1017.2